Weather observations for the past three days for
Minneapolis / Blaine
Imperial (Metric)
Date Time (cdt) Wind (mph) Vis. (mi.) Weather Sky Cond. Temperature (ºF) Relative Humidity Wind Chill (°F) Heat Index (°F) Pressure Precipitation (in)
Air Dwpt 6 hour altimeter (in) sea level (mb) 1 hr 3 hr 6 hr
Max. Min.
18 10:51 S 14 G 21 10.00 Mostly Cloudy SCT028 BKN035 80.6 71.6 74% 85 29.65 0.0
18 09:46 S 14 G 22 10.00 Overcast OVC029 80.6 71.6 74% 85 29.66 0.0
18 08:52 S 17 G 23 10.00 Partly Cloudy SCT031 80.6 71.6 74% 85 29.66 0.0
18 07:51 S 12 G 17 10.00 Partly Cloudy SCT028 78.8 71.6 79% 82 29.66 0.0
18 06:55 S 13 10.00 Fair CLR 77 71.6 83% 78 29.63 0.0
18 06:35 S 14 G 21 10.00 Fair CLR 75.2 71.6 89% 75 29.62 0.0
18 06:15 S 14 G 21 10.00 Fair CLR 75.2 71.6 89% 75 29.61 0.0
18 05:55 S 15 G 21 10.00 Fair CLR 73.4 71.6 94% 29.61 0.0
18 05:35 S 14 10.00 Fair CLR 73.4 69.8 89% 29.62 0.0
18 05:15 SE 10 10.00 Fair CLR 71.6 69.8 94% 29.63 0.0
18 04:55 SE 7 10.00 Fair CLR 71.6 69.8 94% 29.64 0.0
18 04:35 SE 7 10.00 Fair CLR 71.6 69.8 94% 29.65 0.0
18 04:15 SE 7 10.00 Fair CLR 71.6 69.8 94% 29.64 0.0
18 03:55 SE 7 10.00 Fair CLR 71.6 69.8 94% 29.64 0.0
18 03:35 SE 9 10.00 Fair CLR 71.6 69.8 94% 29.63 0.0
18 03:15 SE 13 G 18 10.00 Fair CLR 71.6 68 88% 29.62 0.0
18 02:55 SE 10 G 17 10.00 Fair CLR 69.8 68 94% 29.63 0.0
18 02:35 SE 14 G 17 10.00 Fair CLR 69.8 68 94% 29.64 0.0
18 02:15 SE 10 10.00 Fair CLR 69.8 68 94% 29.65 0.0
18 01:55 SE 12 10.00 Fair CLR 69.8 68 94% 29.66 0.0
18 01:35 SE 15 G 20 10.00 Fair CLR 69.8 68 94% 29.67 0.0
18 01:15 E 12 10.00 Fair CLR 68 66.2 94% 29.7 0.0
18 00:55 SE 13 10.00 Fair CLR 68 66.2 94% 29.7 0.0
18 00:35 E 13 10.00 Fair CLR 68 66.2 94% 29.72 0.0
18 00:15 E 14 G 22 10.00 Partly Cloudy SCT100 68 66.2 94% 29.73 0.0
17 23:55 E 20 G 29 10.00 Light Rain SCT027 SCT065 OVC100 68 66.2 94% 29.73 0.0
17 23:35 E 16 G 21 10.00 Light Rain SCT012 BKN070 OVC090 66.2 66.2 100% 29.77 0.0
17 23:15 E 15 5.00 Heavy Rain SCT016 BKN060 OVC095 66.2 66.2 100% 29.78 0.0
17 22:55 E 9 10.00 Mostly Cloudy BKN100 66.2 66.2 100% 29.8 0.0
17 22:35 E 10 10.00 Partly Cloudy SCT100 66.2 66.2 100% 29.79 0.0
17 22:15 NE 5 10.00 Light Rain SCT013 SCT046 66.2 64.4 94% 29.79 0.0
17 21:45 E 9 10.00 Light Rain SCT024 SCT070 BKN090 64.4 64.4 100% 29.79 0.0
17 19:50 Calm 10.00 Overcast OVC014 64.4 62.6 94% 29.81 0.0
17 18:50 N 12 10.00 Overcast OVC010 64.4 62.6 94% 29.78 0.0
17 17:55 W 17 G 23 10.00 Overcast OVC008 66.2 64.4 94% 29.78 0.0
17 16:45 Vrbl 6 10.00 Overcast SCT045 OVC150 64.4 62.6 94% 29.79 0.0
17 15:45 Vrbl 6 10.00 Overcast BKN045 OVC150 64.4 57.2 78% 29.85 0.0
17 14:45 E 6 10.00 Mostly Cloudy BKN015 64.4 57.2 78% 29.84 0.0
17 13:45 N 6 10.00 Mostly Cloudy BKN013 62.6 55.4 77% 29.87 0.0
17 12:45 E 7 10.00 Partly Cloudy SCT013 62.6 55.4 77% 29.85 0.0
17 11:45 Calm 10.00 Overcast BKN015 OVC100 60.8 55.4 83% 29.88 0.0
17 10:45 SE 8 10.00 Overcast BKN013 OVC100 60.8 55.4 83% 29.86 0.0
17 09:47 E 13 G 21 10.00 Fair CLR 59 57.2 94% 29.82 0.0
17 08:51 E 8 7.00 Light Rain BKN017 BKN031 OVC070 57.2 57.2 100% 29.88 0.0
17 07:53 NE 8 6.00 Light Rain SCT009 BKN019 OVC047 57.2 55.4 94% 29.88 0.0
17 06:58 SE 5 5.00 Heavy Rain SCT010 BKN013 OVC025 59 57.2 94% 29.94 0.0
17 06:55 E 3 5.00 Rain SCT012 BKN018 OVC025 59 57.2 94% 29.94 0.0
17 06:35 NE 3 5.00 Rain SCT012 BKN018 OVC024 59 55.4 88% 29.92 0.0
17 06:15 N 3 7.00 Rain BKN018 BKN036 OVC075 57.2 57.2 100% 29.9 0.0
17 05:55 NE 10 10.00 Light Rain SCT022 BKN034 OVC065 57.2 57.2 100% 29.87 0.0
17 05:35 N 7 10.00 Light Rain SCT013 BKN022 OVC055 59 55.4 88% 29.88 0.0
17 05:15 N 15 5.00 Heavy Rain SCT003 BKN011 OVC045 59 57.2 94% 29.85 0.0
17 04:55 W 12 G 20 4.00 Rain SCT007 BKN045 OVC055 62.6 55.4 77% 29.92 0.0
17 04:35 W 17 G 24 5.00 Light Rain OVC045 68 55.4 64% 29.86 0.0
17 04:15 Calm 10.00 Overcast OVC047 71.6 51.8 50% 29.78 0.0
17 03:55 NE 6 10.00 Mostly Cloudy BKN050 71.6 53.6 53% 29.76 0.0
17 03:35 NE 7 10.00 Mostly Cloudy BKN050 71.6 53.6 53% 29.76 0.0
17 03:15 N 7 10.00 Partly Cloudy SCT050 71.6 55.4 57% 29.76 0.0
17 02:55 NE 5 10.00 Partly Cloudy SCT050 71.6 55.4 57% 29.77 0.0
17 02:35 N 7 10.00 Fair CLR 71.6 55.4 57% 29.77 0.0
17 02:15 N 7 10.00 Fair CLR 73.4 55.4 53% 29.77 0.0
17 01:55 N 7 10.00 Fair CLR 73.4 55.4 53% 29.77 0.0
17 01:35 N 9 10.00 Fair CLR 73.4 59 61% 29.77 0.0
17 01:15 NW 7 10.00 Partly Cloudy SCT048 75.2 59 57% 78 29.77 0.0
17 00:55 N 10 10.00 Partly Cloudy SCT038 SCT048 75.2 60.8 61% 77 29.76 0.0
17 00:35 NW 13 G 20 10.00 Fair CLR 75.2 62.6 65% 77 29.76 0.0
16 23:55 NW 9 10.00 Fair CLR 77 68 74% 79 29.76 0.0
16 23:35 NW 10 10.00 Fair CLR 78.8 68 70% 81 29.75 0.0
16 23:15 W 9 10.00 Fair CLR 78.8 69.8 74% 81 29.73 0.0
16 22:55 W 3 10.00 Fair CLR 80.6 69.8 70% 84 29.73 0.0
16 22:35 Calm 10.00 Fair CLR 80.6 69.8 70% 84 29.72 0.0
16 22:15 W 6 10.00 Fair CLR 80.6 69.8 70% 84 29.71 0.0
16 21:45 SW 6 10.00 Fair CLR 80.6 69.8 70% 84 29.7 0.0
16 20:50 Calm 10.00 Fair CLR 80.6 69.8 70% 84 29.68 0.0
16 19:50 W 9 10.00 Fair CLR 86 68 55% 89 29.66 0.0
16 18:50 W 14 10.00 Partly Cloudy SCT044 87.8 69.8 55% 93 29.64 0.0
16 17:50 SW 12 G 18 10.00 Partly Cloudy SCT037 SCT060 87.8 71.6 59% 94 29.62 0.0
16 16:55 SW 12 G 17 10.00 Mostly Cloudy BKN050 87.8 71.6 59% 94 29.6 0.0
16 15:47 SW 15 G 21 10.00 Partly Cloudy SCT039 SCT060 87.8 71.6 59% 94 29.61 0.0
16 14:49 SW 13 G 18 10.00 Partly Cloudy SCT035 86 71.6 62% 92 29.6 0.0
16 13:47 SW 17 G 25 10.00 Partly Cloudy SCT033 86 71.6 62% 92 29.59 0.0
16 12:50 S 17 G 23 10.00 Mostly Cloudy BKN031 84.2 69.8 62% 88 29.61 0.0
16 11:46 S 14 G 20 10.00 Mostly Cloudy BKN027 80.6 69.8 70% 84 29.62 0.0
16 10:48 S 15 G 20 10.00 Mostly Cloudy BKN023 78.8 68 70% 81 29.63 0.0
16 09:45 S 15 G 20 10.00 Mostly Cloudy SCT019 BKN027 75.2 69.8 83% 75 29.63 0.0
16 08:45 S 13 G 18 10.00 Mostly Cloudy BKN020 71.6 69.8 94% 29.64 0.0
16 07:45 S 10 10.00 Mostly Cloudy BKN018 69.8 69.8 100% 29.64 0.0
16 06:58 S 8 10.00 Overcast OVC045 68 68 100% 29.64 0.0
16 06:55 S 7 10.00 Overcast OVC045 68 68 100% 29.64 0.0
16 06:35 S 9 10.00 Overcast OVC045 68 66.2 94% 29.65 0.0
16 06:15 S 7 10.00 Overcast SCT035 OVC047 68 66.2 94% 29.66 0.0
16 05:55 S 8 10.00 Mostly Cloudy SCT035 BKN047 BKN075 66.2 66.2 100% 29.66 0.0
16 05:35 SE 8 10.00 Mostly Cloudy SCT035 BKN042 BKN075 66.2 66.2 100% 29.66 0.0
16 05:15 SE 9 10.00 Overcast BKN042 BKN050 OVC060 66.2 66.2 100% 29.66 0.0
16 04:55 SE 8 10.00 Overcast OVC050 66.2 66.2 100% 29.65 0.0
16 04:35 SE 10 G 17 10.00 Mostly Cloudy BKN070 66.2 66.2 100% 29.65 0.0
16 04:15 SE 12 10.00 Partly Cloudy SCT070 66.2 64.4 94% 29.65 0.0
16 03:55 SE 12 10.00 Partly Cloudy SCT031 SCT039 SCT045 66.2 64.4 94% 29.65 0.0
16 03:35 SE 10 10.00 Light Drizzle SCT006 SCT015 SCT037 66.2 66.2 100% 29.66 0.0
16 03:15 SE 10 7.00 Rain SCT010 BKN016 OVC020 66.2 66.2 100% 29.67 0.0
16 02:55 SE 8 5.00 Rain SCT007 BKN014 OVC020 66.2 66.2 100% 29.68 0.0
16 02:35 S 9 5.00 Rain SCT009 BKN014 OVC021 66.2 66.2 100% 29.7 0.0
16 02:15 S 12 7.00 Rain SCT009 BKN016 OVC033 66.2 66.2 100% 29.72 0.0
16 01:55 SE 13 G 21 7.00 Light Rain BKN011 BKN024 OVC047 66.2 66.2 100% 29.69 0.0
16 01:35 S 16 G 21 7.00 Light Rain BKN009 BKN014 OVC055 66.2 64.4 94% 29.72 0.0
16 01:15 SE 15 G 21 7.00 Rain BKN009 OVC016 66.2 64.4 94% 29.72 0.0
16 00:55 SE 12 G 17 10.00 Light Rain BKN009 OVC034 64.4 64.4 100% 29.73 0.0
16 00:35 SE 9 10.00 Rain SCT004 BKN034 OVC041 64.4 64.4 100% 29.73 0.0
16 00:15 SE 13 G 16 3.00 Heavy Rain SCT007 BKN015 OVC040 64.4 64.4 100% 29.74 0.0
15 23:55 SE 12 5.00 Rain SCT015 BKN028 OVC070 64.4 64.4 100% 29.75 0.0
15 23:35 SE 14 G 20 10.00 Light Rain SCT042 BKN048 OVC070 66.2 62.6 88% 29.76 0.0
15 23:15 SE 13 G 18 10.00 Overcast SCT040 OVC046 66.2 62.6 88% 29.76 0.0
15 22:55 SE 10 10.00 Mostly Cloudy SCT042 BKN048 66.2 62.6 88% 29.76 0.0
15 22:35 SE 10 G 18 10.00 Mostly Cloudy BKN047 66.2 62.6 88% 29.76 0.0
15 22:15 SE 14 G 18 10.00 Mostly Cloudy BKN049 66.2 62.6 88% 29.76 0.0
15 21:45 E 10 10.00 Mostly Cloudy SCT036 SCT060 BKN070 64.4 62.6 94% 29.78 0.0
15 20:53 E 10 G 20 10.00 Light Rain OVC060 64.4 62.6 94% 29.78 0.0
15 19:51 E 12 G 18 10.00 Light Rain SCT015 SCT031 OVC050 64.4 62.6 94% 29.81 0.0
15 18:48 SE 13 G 18 7.00 Overcast OVC060 64.4 62.6 94% 29.83 0.0
15 17:46 SE 10 3.00 Rain SCT010 BKN017 OVC039 62.6 62.6 100% 29.86 0.0
15 16:48 SE 14 5.00 Rain SCT015 OVC030 64.4 62.6 94% 29.88 0.0
15 15:50 E 8 4.00 Light Rain OVC042 62.6 62.6 100% 29.9 0.0
15 14:48 SE 13 G 21 4.00 Light Rain SCT016 BKN024 OVC038 64.4 62.6 94% 29.92 0.0
15 13:45 SE 10 10.00 Light Rain SCT070 68 60.8 78% 29.93 0.0
15 12:58 SE 10 10.00 Light Rain CLR 68 60.8 78% 29.94 0.0
15 11:45 S 10 10.00 Light Rain CLR 69.8 57.2 64% 29.96 0.0
Date Time (cdt) Wind (mph) Vis. (mi.) Weather Sky Cond. Air Dwpt Max. Min. Relative Humidity Wind Chill (°F) Heat Index (°F) altimeter (in) sea level (mb) 1 hr 3 hr 6 hr
6 hour
Temperature (ºF) Pressure Precipitation (in)